Theta_e
320 320 320 321 321 321 322 322 323 323 324 324 325 326 325 324 324 324 324 325 326 327 326 322 324 324 324 321 322 321 314 298 299 298 298 298 316 325 326 325 326 328 323 292 294 295 292 292 294 291 293 292 289 289 288 289 286 284 280 277 279 276 278 279 278 277 281 280 282 285 282 284 284 285 288 289 287 284 286 287 287 287 288 288 288 288 288 290
320 320 321 321 321 321 321 322 323 324 324 323 325 326 324 325 323 323 323 324 325 326 326 324 323 325 323 321 322 320 302 299 298 298 297 310 323 326 326 325 326 325 314 294 291 290 293 292 292 293 288 288 289 288 288 287 287 280 276 278 279 276 282 280 279 279 283 284 283 282 282 285 285 285 287 287 284 284 285 284 284 287 288 288 288 288 289 290
320 321 320 321 321 321 322 323 322 323 323 323 325 324 324 324 324 325 324 325 325 326 325 326 323 321 322 324 324 318 304 296 299 295 299 319 323 325 325 324 324 320 297 295 292 290 291 290 290 291 288 287 288 286 287 286 286 280 280 278 279 279 283 281 281 281 280 283 283 283 284 284 285 286 287 287 283 284 284 284 285 285 286 286 288 289 289 290
320 321 320 320 320 321 321 322 321 321 322 324 324 324 324 323 322 323 325 323 325 325 324 325 326 324 320 320 324 299 299 295 292 293 300 321 323 325 323 323 322 310 297 293 291 290 290 291 290 290 286 287 284 284 287 286 284 282 281 274 281 280 281 284 281 282 282 282 283 282 283 285 285 284 286 284 285 282 283 283 286 285 284 286 287 288 288 288
319 320 320 319 319 320 320 320 321 322 323 323 323 324 325 322 322 322 323 323 323 323 324 324 324 321 318 320 317 299 296 288 291 295 303 321 323 324 322 321 319 299 294 293 293 291 292 289 287 286 286 283 283 281 283 284 283 282 280 281 281 280 282 285 283 283 282 281 281 283 285 285 285 285 283 284 283 279 281 285 285 287 287 286 288 289 288 288
319 319 319 319 319 318 320 320 321 321 322 322 323 324 324 324 323 322 322 323 323 323 323 324 324 322 318 316 299 299 294 281 293 298 318 320 322 320 320 319 315 298 294 292 291 291 290 291 290 283 282 282 283 284 283 283 285 283 281 280 281 281 283 283 283 283 282 283 282 284 285 285 283 285 282 283 284 283 283 287 285 287 288 287 287 287 288 288
320 318 318 318 318 318 319 319 319 321 321 322 323 324 325 325 323 321 321 322 322 322 323 325 325 323 316 315 302 301 295 291 294 301 315 319 319 315 317 315 308 299 296 295 292 290 289 290 290 283 281 283 283 284 284 284 286 283 280 281 283 282 284 282 285 280 279 283 285 284 285 285 284 285 284 283 285 287 287 284 285 286 287 286 286 287 287 288
320 319 318 318 317 318 318 319 319 321 322 323 323 324 324 325 323 321 321 322 321 321 321 322 322 320 316 299 297 294 293 291 298 299 312 315 307 305 311 302 300 297 297 293 293 292 288 289 289 284 283 282 283 282 283 285 284 282 281 282 284 283 283 282 281 281 283 284 283 284 286 284 283 285 284 284 286 286 286 286 286 285 285 285 285 287 287 286
319 318 318 318 317 317 318 319 320 320 320 320 321 321 323 323 322 321 321 322 322 322 320 320 319 321 315 297 294 294 290 296 299 300 302 301 300 300 303 301 300 298 296 294 292 292 292 287 288 284 284 283 285 285 283 282 282 282 283 282 283 283 283 282 284 280 282 285 283 286 282 280 281 282 284 287 286 285 284 286 286 284 286 286 287 287 286 285
318 318 317 317 317 318 318 319 320 320 320 320 320 320 321 322 322 320 321 322 322 324 323 319 318 315 302 296 295 292 295 299 298 301 300 300 299 304 303 300 297 296 295 294 294 293 290 287 290 290 289 285 283 282 282 282 282 281 282 282 283 282 284 283 285 282 282 285 283 285 281 282 283 285 281 282 284 283 286 286 284 284 285 286 286 287 285 284
318 318 317 317 317 317 318 320 320 320 321 320 320 320 319 321 322 321 321 322 323 323 321 320 317 312 301 296 294 289 298 301 299 301 300 299 300 302 300 300 297 295 297 296 294 292 292 292 292 291 290 285 285 284 282 283 284 284 283 283 283 280 283 282 282 282 283 286 283 285 283 282 283 284 282 283 286 285 287 285 284 283 284 285 285 285 285 285
317 317 317 317 317 318 318 320 321 322 321 323 323 320 319 321 322 321 321 322 322 320 319 317 312 304 299 299 294 294 299 300 299 299 301 301 298 298 299 298 297 295 296 293 293 292 293 291 292 290 288 288 285 284 286 284 284 282 284 282 281 279 283 283 283 283 282 285 284 283 283 282 282 281 284 283 283 286 285 284 284 284 284 283 283 283 284 285
316 317 317 317 317 317 319 320 321 322 323 322 321 318 319 321 322 322 322 321 322 319 318 315 307 300 299 295 294 301 298 299 298 300 303 302 299 297 299 300 299 298 297 295 292 293 292 291 296 292 287 285 283 284 286 285 283 283 282 281 281 276 279 284 283 282 284 285 282 282 279 274 277 281 283 282 283 285 286 285 284 283 282 282 282 283 284 284
316 316 317 317 317 318 318 320 321 322 322 321 318 318 320 321 322 322 321 321 323 321 318 318 303 301 297 289 299 301 299 299 299 302 299 302 302 301 303 302 302 299 297 295 294 294 296 296 295 291 289 287 285 290 287 282 283 283 281 278 278 278 280 283 282 282 285 284 281 285 280 277 278 278 280 281 282 285 284 284 283 282 282 282 282 282 284 285
316 316 316 317 317 317 318 319 320 321 321 319 317 317 319 319 321 321 321 318 320 321 323 313 300 295 292 294 299 301 316 300 301 296 298 300 298 299 301 301 301 299 296 297 295 296 295 294 295 289 287 287 287 286 280 279 279 280 279 277 275 276 282 281 283 281 282 285 281 282 277 278 278 281 282 282 284 283 283 284 283 282 282 281 281 282 283 285
316 316 316 317 317 317 317 318 319 319 319 319 316 316 318 319 319 320 320 318 317 318 303 301 299 299 295 292 299 308 297 297 299 298 297 299 297 298 297 296 296 299 298 296 297 296 295 295 289 286 287 287 282 277 279 282 280 277 279 279 279 278 280 280 283 280 282 280 282 283 280 279 282 282 281 280 283 283 282 283 283 283 282 282 282 282 283 284
315 315 316 316 316 317 317 317 317 318 318 318 317 315 316 318 319 321 318 313 305 306 306 299 297 298 292 297 302 296 293 295 297 298 298 297 297 297 297 298 296 296 295 298 296 295 293 289 285 286 284 283 281 283 280 275 274 275 277 278 278 281 279 280 280 282 282 282 283 281 281 279 281 282 283 283 282 282 282 284 284 284 283 283 282 282 283 284
314 315 315 316 316 316 316 316 317 316 318 318 316 318 308 318 316 314 310 306 300 300 298 300 297 298 292 298 292 294 295 293 298 296 295 298 297 297 296 296 294 294 292 295 294 292 289 285 285 281 281 281 281 277 280 279 281 279 278 278 280 276 278 278 280 283 283 280 282 279 279 282 284 284 284 284 281 281 283 285 285 284 284 284 283 283 283 284
314 314 314 315 316 316 317 316 316 317 316 319 319 319 316 315 301 302 301 301 299 294 290 294 292 286 284 293 292 293 296 297 296 297 299 298 297 294 294 294 293 294 291 287 289 287 286 285 285 282 281 281 279 280 278 279 278 279 277 279 278 279 279 280 280 279 281 280 280 278 280 281 283 284 286 284 282 280 283 283 283 283 283 283 283 283 283 284
314 314 314 315 315 316 316 316 315 316 318 308 297 302 298 294 295 292 296 298 292 291 292 292 291 293 294 293 295 298 298 297 296 297 298 297 297 296 293 292 291 291 285 284 285 285 284 282 279 276 280 280 279 279 280 280 279 278 278 277 278 278 278 279 278 279 280 280 278 277 277 278 282 284 285 283 281 281 281 283 284 284 284 284 283 283 284 284
313 313 313 314 315 316 316 316 314 313 313 296 299 298 296 289 290 287 288 292 289 289 293 293 292 294 294 294 293 296 293 296 295 296 298 299 295 295 291 291 288 287 283 282 283 286 286 283 280 279 280 280 280 279 279 279 278 279 278 279 279 278 279 278 281 279 280 282 278 277 280 283 283 283 282 281 281 283 283 282 283 284 284 284 283 283 284 286
313 313 313 314 313 315 316 316 313 313 308 299 298 296 293 291 295 293 292 289 293 291 290 291 291 292 294 292 294 293 292 292 297 297 298 300 294 292 290 287 284 284 282 282 282 283 283 280 281 281 280 279 278 279 278 278 276 277 281 279 280 278 278 280 279 278 280 281 279 278 280 281 282 282 282 280 281 281 281 282 283 283 284 283 282 282 283 284
312 313 313 313 314 315 316 316 312 308 294 296 294 292 293 295 293 289 292 291 289 291 291 290 293 290 293 295 294 295 290 290 289 294 296 296 290 290 285 285 285 283 285 283 284 280 282 280 282 281 280 281 280 278 278 276 278 278 278 278 279 278 279 279 279 278 280 281 279 278 277 279 279 279 279 280 279 281 281 281 282 282 284 284 285 283 283 284
312 312 312 312 313 314 316 314 310 299 294 292 292 292 293 291 291 293 290 286 288 290 293 292 291 289 292 293 295 294 290 290 289 292 297 292 289 288 287 283 282 282 282 282 283 283 281 283 280 279 280 283 279 278 278 280 280 278 278 276 277 278 277 277 278 279 279 280 278 278 277 277 277 280 281 281 280 281 281 281 282 282 283 283 283 284 284 285
312 312 312 314 313 315 313 310 297 292 291 291 291 293 290 291 291 292 291 285 285 288 292 291 288 293 295 297 293 297 290 290 292 293 292 294 291 288 286 285 282 281 282 281 283 283 280 282 281 281 280 279 279 277 276 275 278 276 277 278 280 278 278 277 277 278 275 280 278 278 276 276 276 278 278 280 280 282 280 281 283 284 283 282 283 284 284 285
312 312 312 313 313 313 316 300 295 292 290 291 293 293 290 288 290 290 286 277 280 285 291 290 296 293 297 294 292 286 292 288 293 293 296 295 295 290 286 285 284 283 281 281 283 281 282 281 281 279 279 279 279 279 279 277 275 277 280 278 280 279 277 276 278 277 275 278 278 276 279 274 275 279 281 279 278 281 282 279 281 282 283 282 283 283 283 284
312 312 312 313 312 311 296 292 291 291 293 291 292 292 292 293 290 295 292 276 275 284 287 294 295 293 297 292 291 291 287 288 294 292 292 294 293 295 289 284 284 281 277 278 280 282 282 281 280 277 276 277 278 280 280 277 276 278 280 278 278 278 278 278 276 275 278 275 276 274 276 275 274 276 279 277 278 281 281 282 282 282 282 282 282 283 283 283
311 312 312 313 309 305 292 294 292 292 289 294 290 289 290 290 293 289 280 270 275 288 287 288 294 296 295 292 291 290 290 289 287 291 291 292 293 292 287 284 284 284 283 282 277 281 282 282 280 280 277 277 279 280 281 279 280 280 279 279 280 280 278 277 277 276 275 277 276 275 275 276 271 278 278 278 282 280 280 281 283 282 281 282 282 283 283 284
311 312 311 311 311 304 294 290 289 293 292 291 289 291 289 290 288 286 276 274 280 285 297 290 299 294 288 293 289 285 287 288 287 290 290 292 294 291 286 283 282 283 281 283 281 282 283 282 282 281 279 279 281 280 279 280 278 281 279 279 279 278 278 278 276 279 273 277 272 275 273 274 275 276 277 278 281 280 280 278 278 281 282 282 283 284 284 284
312 311 309 310 302 297 291 288 292 291 291 291 293 292 292 290 288 282 278 274 285 281 289 290 291 287 285 288 286 287 288 285 286 287 289 286 290 290 288 286 283 282 285 284 283 282 282 286 285 282 281 283 280 279 278 279 281 280 281 280 279 277 274 272 273 275 272 271 273 275 274 276 273 276 279 282 282 280 279 280 280 280 281 282 282 283 284 284
311 310 307 305 294 294 287 287 289 291 291 295 296 295 292 286 274 270 271 277 285 283 289 285 284 284 282 285 286 285 284 282 286 284 285 286 288 285 286 287 285 283 280 281 282 281 283 283 283 283 284 281 282 281 280 279 280 280 278 279 278 279 275 274 264 265 272 268 269 274 275 274 273 275 280 280 279 279 281 284 282 283 283 283 283 283 283 282
311 309 306 298 297 290 291 290 291 292 293 293 291 287 287 286 283 278 277 285 280 283 281 284 283 282 281 282 281 282 283 282 283 281 280 279 279 281 280 281 276 280 277 276 279 282 284 283 283 283 286 282 280 281 281 280 279 278 276 277 277 271 272 274 268 275 267 274 277 274 274 273 275 279 279 276 278 280 279 281 281 281 283 283 283 283 283 283
310 308 307 301 296 289 290 289 292 293 294 292 288 285 279 273 275 270 274 274 281 283 283 284 283 282 280 280 281 281 281 285 283 282 281 280 279 280 280 281 280 282 279 278 280 277 283 281 282 282 283 283 282 281 278 279 278 279 276 274 271 269 264 267 261 264 268 273 276 275 274 277 278 281 282 284 283 281 281 281 281 281 282 283 283 283 283 285
307 302 294 296 294 292 293 291 291 295 293 293 292 288 284 278 276 284 274 272 279 279 282 281 282 282 278 285 284 282 284 284 282 283 281 279 277 277 278 279 280 279 276 277 278 276 276 279 283 281 281 281 280 281 282 282 279 279 278 278 276 270 271 270 265 274 273 274 275 272 273 271 277 284 282 282 281 280 280 279 279 280 281 281 281 281 282 283
305 297 293 290 290 290 291 288 291 295 291 289 285 280 278 274 271 277 275 273 276 278 283 279 282 281 282 278 281 281 284 284 282 279 280 279 279 276 279 279 280 280 277 279 278 274 281 278 282 282 282 281 281 281 280 278 280 278 278 277 277 276 271 275 267 266 265 267 271 271 274 273 280 281 282 280 279 279 279 279 279 281 281 280 281 284 285 285
304 294 292 289 293 291 288 290 289 293 290 285 280 280 279 275 280 276 279 281 281 283 283 281 280 281 280 281 280 280 285 282 283 278 279 277 278 279 280 279 280 279 280 279 279 276 276 282 281 280 282 280 282 281 281 281 279 279 279 273 277 278 275 267 267 265 267 266 269 267 277 279 281 283 282 278 281 284 281 281 280 282 282 280 282 284 284 285
290 292 294 291 291 290 287 289 292 289 290 282 281 280 275 275 278 277 283 282 283 281 281 282 280 280 279 280 279 278 281 284 282 280 279 280 280 278 280 281 280 279 280 278 279 280 277 278 280 282 283 283 279 280 280 280 282 279 276 280 279 278 275 274 274 262 261 267 270 270 273 276 278 278 280 282 282 283 281 281 280 280 280 281 285 285 285 285
293 292 294 291 293 290 290 288 291 288 287 282 279 290 273 278 281 282 280 282 284 281 279 279 279 281 276 278 283 281 281 284 283 276 277 277 279 281 278 279 281 281 279 279 280 279 280 277 282 280 280 281 280 281 282 281 282 281 281 278 282 273 277 270 269 270 270 266 268 273 272 273 276 280 279 284 283 281 280 280 279 283 284 284 284 285 284 284
287 289 292 292 291 291 289 290 290 286 283 282 272 285 278 276 281 281 282 282 283 283 285 280 280 277 276 277 281 280 279 284 279 279 278 280 279 282 282 280 282 279 278 279 277 279 279 276 277 279 280 282 281 280 277 279 281 276 281 280 275 277 273 271 273 270 272 268 269 274 270 279 277 277 278 282 281 281 280 280 282 283 283 283 283 284 284 285
292 290 287 293 290 289 290 291 288 285 281 284 276 276 276 278 280 280 280 283 283 284 282 281 277 277 277 276 281 283 278 278 280 280 279 279 282 283 283 282 280 281 280 279 279 278 277 279 274 280 277 280 280 278 279 278 278 279 277 275 278 271 274 275 270 273 274 263 264 264 272 275 280 279 281 280 279 282 281 284 283 283 283 282 282 283 284 283
285 286 287 292 291 289 291 290 283 276 276 274 273 273 274 277 280 281 280 279 282 281 283 280 280 281 278 277 280 279 278 276 278 280 278 279 280 281 280 279 280 281 280 279 279 277 274 276 276 275 278 278 277 279 278 278 278 278 278 279 276 274 272 274 273 267 263 271 266 262 275 278 285 281 283 284 283 280 280 281 282 283 283 283 283 283 282 283
289 281 287 291 289 292 291 283 275 269 272 275 278 277 281 287 276 280 279 279 281 281 280 280 280 277 276 278 279 276 277 278 276 278 279 282 282 281 281 276 279 279 281 280 279 280 280 273 276 274 276 279 279 279 277 277 276 274 278 279 277 276 272 269 270 271 268 267 264 265 267 278 284 280 280 282 280 279 279 278 281 283 282 283 283 284 283 283
282 286 289 290 290 291 285 277 279 278 275 275 279 281 279 277 276 280 280 280 280 281 281 280 283 282 279 280 275 274 278 281 277 283 279 278 277 279 278 276 277 280 279 277 281 277 285 271 271 275 273 275 277 276 277 277 277 277 276 275 277 278 279 275 274 273 269 268 269 266 267 279 284 280 279 280 279 279 279 278 280 282 283 283 283 284 284 285
283 285 290 291 289 291 289 285 279 274 273 273 278 278 280 279 279 277 277 278 280 280 283 281 281 281 281 276 277 278 278 281 282 282 281 278 281 277 275 277 276 280 280 280 279 281 277 276 276 270 267 270 272 276 275 273 274 275 276 276 276 276 274 273 271 268 273 270 272 273 271 277 281 281 279 279 279 280 281 281 280 281 283 284 284 285 285 286
285 284 283 287 291 292 289 280 278 273 275 275 275 278 279 280 279 280 280 280 280 278 282 281 282 280 277 274 271 273 271 278 278 279 280 278 280 278 276 275 278 280 281 282 287 282 278 275 274 273 273 271 271 272 272 273 276 275 274 276 276 277 275 275 275 268 271 268 272 268 272 283 282 281 282 282 281 283 284 284 282 281 283 285 286 286 286 286
284 282 280 282 285 284 280 280 280 279 276 272 278 278 278 278 281 278 278 279 280 279 279 281 279 278 278 279 276 273 275 273 278 277 279 280 278 278 277 276 277 278 279 285 283 277 271 272 275 272 274 276 279 278 280 281 277 276 277 275 277 276 276 276 274 268 274 269 273 277 280 285 286 288 287 287 283 284 287 287 286 287 285 284 284 285 285 286
282 281 279 280 280 282 277 279 277 279 281 279 280 278 278 278 279 279 278 278 280 278 277 281 281 283 280 281 274 273 270 272 272 274 276 278 279 278 277 278 278 282 288 285 283 273 270 274 274 274 277 280 280 280 280 281 279 279 278 277 277 277 276 277 276 276 276 273 276 279 281 280 283 285 286 287 289 288 287 287 287 286 286 286 287 285 287 285
284 281 279 280 282 281 278 280 279 278 280 279 279 279 277 278 279 279 279 280 278 276 280 280 279 282 281 282 279 279 274 272 269 277 276 276 278 278 279 279 279 281 282 279 279 277 272 273 275 275 274 276 277 277 277 277 278 279 278 278 276 277 275 277 279 279 277 278 281 281 276 277 283 285 287 288 289 288 288 288 288 287 286 286 285 285 285 285
281 279 281 280 283 278 279 281 280 280 280 277 280 279 277 277 279 279 278 279 278 279 281 279 279 281 280 279 281 278 273 279 277 272 272 274 276 277 277 279 279 276 278 277 275 267 275 269 271 273 275 277 279 278 277 276 276 276 277 278 279 277 277 279 280 279 279 281 283 283 283 282 285 286 288 289 290 288 288 288 287 286 286 286 285 284 285 285
282 285 281 279 279 276 278 279 279 278 279 283 280 280 280 278 279 279 279 278 278 278 280 279 279 279 279 279 278 279 280 282 282 279 278 277 274 277 276 278 277 278 277 274 273 273 277 272 278 268 271 272 274 275 274 275 274 275 278 278 278 278 278 279 279 279 278 279 281 281 280 280 285 288 287 288 288 287 286 285 286 286 285 284 284 284 285 286
283 285 281 282 282 279 280 277 281 279 280 280 279 280 281 279 280 280 282 281 282 279 279 281 279 277 278 279 279 281 281 281 283 286 281 281 282 280 282 280 280 276 276 274 275 272 276 272 269 267 273 272 272 272 274 274 274 274 276 278 277 276 275 277 277 279 278 278 279 277 276 279 285 287 284 284 284 283 284 286 286 287 285 284 284 286 286 287
283 284 280 280 279 284 282 278 278 280 279 278 282 280 283 282 279 280 285 281 279 279 281 281 278 279 277 279 282 282 281 280 284 282 281 279 280 279 279 279 280 279 277 276 275 274 271 270 273 268 274 269 271 271 273 275 279 282 282 283 280 278 279 277 279 279 281 282 278 276 279 286 287 284 284 287 286 285 285 286 286 287 287 285 285 287 288 288
Wind_Speed
9 8 8 9 9 9 9 9 8 9 9 9 9 9 9 8 8 8 7 8 9 6 8 11 8 2 2 3 1 1 4 6 11 14 19 3 7 16 17 18 17 16 10 2 2 2 5 7 9 8 8 9 6 5 3 6 3 5 6 5 7 2 4 5 4 6 0 4 3 1 0 2 1 1 1 0 2 3 2 2 4 2 3 4 4 2 3 4
8 8 9 9 9 9 9 9 9 9 9 8 8 8 8 8 8 7 7 7 8 9 8 9 9 4 1 2 3 2 4 4 6 15 11 7 20 20 20 18 18 16 5 8 6 4 8 4 6 9 8 7 5 3 2 3 5 8 4 6 7 3 0 3 1 4 1 2 1 1 1 1 2 0 2 0 2 4 3 3 3 4 7 5 3 4 3 6
9 9 9 9 9 9 9 9 9 9 9 9 8 8 8 7 7 7 8 7 8 7 7 6 6 5 2 1 1 2 0 2 13 18 13 18 23 21 20 20 17 11 4 4 1 5 4 4 1 6 7 7 10 3 5 5 4 2 7 7 1 4 0 2 2 2 3 2 2 3 0 0 1 0 1 0 1 2 3 4 2 1 4 5 6 6 5 5
9 9 9 9 9 9 9 8 9 9 9 9 9 8 8 7 8 8 8 9 8 8 8 6 5 5 2 1 3 3 3 4 9 6 8 19 22 21 19 18 16 4 2 9 3 6 5 6 11 11 3 12 4 3 10 8 4 2 8 3 3 4 3 1 1 2 1 1 3 1 0 0 1 1 0 1 1 3 5 6 5 4 5 6 6 6 5 5
9 9 9 9 9 9 9 9 9 9 9 9 9 8 7 7 9 10 10 11 11 10 8 6 6 6 3 2 3 1 3 5 3 4 9 21 21 21 19 16 15 5 5 7 4 5 8 8 4 7 7 2 5 4 5 6 3 5 3 1 3 1 4 1 0 2 1 1 5 0 1 1 0 0 1 4 3 6 1 3 8 7 6 5 5 6 4 5
9 9 9 9 9 9 9 9 9 9 9 9 9 8 7 7 9 9 10 11 11 9 6 5 4 2 7 7 2 2 2 2 4 7 15 20 21 19 18 14 14 3 3 7 3 4 6 7 9 6 5 7 8 10 5 2 1 9 2 2 0 2 4 1 0 2 1 1 2 0 0 0 1 1 0 2 6 5 5 3 4 7 6 4 3 4 6 6
9 9 9 9 9 9 8 9 8 8 8 8 8 8 8 7 7 8 8 9 11 8 6 4 3 2 2 6 7 18 13 1 2 9 17 19 20 18 16 10 11 9 9 7 6 5 4 8 13 3 6 8 6 10 3 5 7 10 4 1 4 1 4 2 0 1 2 7 0 1 1 1 1 1 1 3 7 9 7 3 4 4 4 3 4 4 5 6
9 8 8 8 8 8 8 8 7 7 7 7 8 8 8 7 7 7 8 8 10 13 9 6 5 3 4 3 5 9 9 4 8 7 17 19 17 15 13 3 14 4 15 7 0 4 2 9 12 4 11 7 1 5 1 11 10 7 4 1 1 1 1 1 1 4 2 2 2 1 0 1 2 0 2 6 8 7 7 1 2 3 3 3 3 7 6 5
9 8 8 8 8 8 8 8 7 7 7 8 9 9 9 7 7 7 7 8 9 10 14 9 4 3 6 6 5 10 5 3 4 8 11 14 14 11 12 8 9 12 5 5 4 4 7 1 3 2 5 6 0 7 5 3 5 2 1 1 1 1 1 1 1 4 3 1 1 1 3 3 1 4 2 9 8 4 3 4 2 3 5 5 5 6 4 5
9 9 9 8 8 9 8 7 6 6 7 8 9 9 9 8 6 7 8 7 8 8 8 13 6 4 10 6 5 13 2 4 5 8 9 10 10 12 19 8 6 4 9 7 12 8 5 3 8 8 18 10 2 5 1 5 5 4 4 3 5 1 0 4 2 2 3 0 1 0 3 1 1 2 4 2 6 3 3 4 3 4 5 7 6 6 4 3
10 10 10 10 9 9 9 8 6 7 7 8 9 8 8 7 6 7 7 7 6 5 4 4 10 10 7 3 11 6 1 4 3 6 9 8 9 16 11 10 6 7 13 12 12 6 7 12 7 5 7 3 5 6 6 2 6 7 8 5 6 3 4 2 1 3 3 0 0 0 2 1 2 1 6 2 2 2 1 4 5 5 5 6 7 6 5 4
12 11 11 10 10 9 8 7 6 6 7 7 7 9 9 7 6 5 4 5 7 6 5 6 6 7 6 17 12 3 2 1 4 4 4 11 6 4 5 6 9 5 7 8 6 4 1 5 4 2 6 1 7 4 5 1 3 3 0 3 2 5 3 6 0 3 1 1 0 0 2 1 0 3 7 6 4 0 1 4 5 6 6 6 6 6 5 5
13 11 10 9 9 7 7 6 6 6 7 7 8 10 7 5 4 5 4 7 7 5 6 6 5 5 6 13 1 4 1 2 2 6 15 10 1 1 4 6 11 12 8 14 5 3 1 2 11 17 2 6 4 1 4 5 1 2 6 4 2 2 2 5 2 3 0 1 2 2 2 3 4 10 7 3 1 0 1 5 5 5 6 6 5 5 6 6
11 11 10 9 8 7 7 6 6 6 6 7 9 9 6 5 6 7 7 7 3 2 5 8 5 7 8 2 3 3 4 2 3 16 11 9 9 5 7 9 9 7 6 12 6 4 10 9 20 12 4 6 5 0 7 2 4 3 0 4 1 1 0 2 2 7 2 1 3 0 1 6 5 5 4 3 1 2 3 5 6 5 6 6 5 5 6 7
13 12 11 10 9 8 7 7 7 7 6 8 9 10 7 7 7 8 6 5 7 5 2 2 6 5 8 1 5 8 3 1 11 3 4 9 7 4 9 10 9 8 5 8 3 4 5 3 9 9 4 2 2 3 2 2 4 2 1 1 2 3 1 3 2 4 3 2 3 2 0 6 5 6 1 2 1 1 5 7 7 6 6 6 6 5 6 7
14 14 13 11 10 9 8 8 7 6 7 7 8 12 9 8 6 6 7 4 5 7 1 4 8 9 10 4 1 3 6 6 8 4 2 5 5 3 4 3 3 6 9 4 3 3 6 11 13 2 1 4 10 5 4 3 1 3 1 0 0 1 1 3 1 2 1 3 2 1 4 6 3 3 4 1 2 2 5 7 7 7 7 6 5 5 5 7
15 14 13 12 10 8 9 9 8 7 6 5 5 6 11 9 4 4 7 7 7 5 7 2 1 1 5 4 1 4 3 2 4 3 7 3 4 1 2 3 3 6 5 1 9 6 8 10 3 3 6 6 0 1 0 4 3 2 3 3 1 0 1 1 4 0 5 0 2 2 2 6 4 5 6 6 0 2 5 8 8 8 6 6 5 6 6 5
15 14 13 11 10 9 9 9 8 7 5 3 1 3 1 7 13 13 11 7 3 6 3 4 2 4 2 6 3 4 1 6 8 6 2 1 4 6 7 5 2 2 5 1 6 7 5 4 3 4 2 5 7 5 1 1 1 0 2 2 1 1 3 3 1 1 7 2 1 2 3 12 12 10 9 7 1 3 8 9 8 7 6 7 5 6 6 6
16 14 13 11 9 9 8 9 8 6 5 2 0 3 1 2 1 8 11 7 7 7 5 9 8 4 1 5 6 6 3 3 3 5 9 7 3 3 3 3 4 2 1 5 3 5 5 5 6 8 8 9 7 4 4 1 2 3 3 2 1 3 2 2 3 2 4 5 5 1 5 7 11 12 11 6 1 3 7 5 6 7 7 7 6 6 6 6
16 15 13 11 10 9 9 9 9 8 3 3 2 1 2 2 7 5 8 11 9 4 3 1 0 2 1 5 5 6 2 3 3 7 4 1 2 3 5 3 3 9 6 1 6 4 0 10 7 2 1 3 3 2 1 1 3 4 3 3 0 2 6 3 3 2 1 3 4 3 3 6 12 12 10 6 4 3 5 7 7 7 7 7 6 6 7 6
15 15 13 12 10 10 10 10 9 7 5 4 2 2 1 3 2 1 2 2 2 0 2 1 2 2 2 1 3 6 2 3 2 6 5 1 2 1 4 4 5 7 4 1 0 3 5 10 5 2 2 3 2 2 3 4 3 2 3 1 1 2 4 2 1 3 6 3 3 1 6 11 11 8 7 5 1 6 6 6 7 9 6 6 6 8 7 7
14 15 14 12 13 10 9 7 8 4 7 5 5 3 1 1 0 0 5 4 2 2 5 1 1 3 2 2 1 2 3 1 8 14 4 4 5 3 5 8 5 4 3 3 2 7 9 6 1 2 2 3 3 4 2 3 2 1 0 1 0 1 6 7 1 3 3 0 6 4 8 12 12 8 8 3 3 4 3 4 4 3 7 6 5 6 7 6
16 15 14 13 12 10 7 6 3 7 4 6 4 4 1 0 2 1 2 7 3 1 4 4 5 4 4 3 0 3 5 8 2 8 9 6 4 7 1 6 7 2 4 5 5 2 6 2 1 1 4 2 4 4 4 5 4 3 2 4 3 3 4 2 1 6 4 1 3 5 7 10 8 5 5 4 2 4 4 4 7 5 7 8 7 5 5 6
15 15 14 14 13 10 5 1 2 7 6 4 5 3 1 1 1 0 2 2 3 2 2 0 1 1 3 3 2 4 3 1 2 11 7 4 3 1 5 4 6 5 6 7 8 11 5 0 2 3 1 1 2 3 3 1 0 2 3 2 1 3 2 2 5 7 5 1 1 5 1 6 3 1 3 1 3 3 3 6 5 4 6 6 6 7 6 8
15 14 14 12 13 10 3 3 8 1 1 3 3 1 1 0 1 1 2 1 4 1 1 1 3 1 1 0 3 0 1 1 1 2 3 3 1 2 1 1 3 2 2 2 6 12 3 0 1 1 3 3 1 3 3 1 1 2 1 2 0 1 3 4 5 8 4 1 3 4 4 2 3 5 7 8 7 6 3 5 7 7 5 2 4 6 5 5
14 14 14 12 12 10 5 4 0 2 2 2 0 0 1 0 1 1 6 3 1 3 2 2 1 1 2 2 5 0 0 3 1 1 1 1 2 2 1 3 1 4 2 2 7 4 2 2 2 1 3 4 3 3 1 1 1 1 1 2 1 1 1 2 6 2 2 1 4 2 3 4 4 4 2 3 6 8 8 3 7 6 6 4 4 4 5 5
15 13 13 11 13 6 2 1 0 1 0 0 0 1 1 1 2 1 0 5 2 1 1 1 1 1 3 2 0 0 1 1 2 2 2 2 1 1 3 3 3 3 1 1 2 3 1 2 5 4 3 3 4 6 0 2 2 0 0 4 3 1 0 1 1 1 1 1 3 5 4 1 5 4 3 3 4 7 8 8 6 5 4 4 4 4 4 5
16 13 12 10 11 8 1 5 2 1 0 0 0 1 1 1 2 1 5 2 0 2 1 2 0 2 3 2 6 4 1 4 1 1 2 3 1 3 8 0 2 1 0 1 4 1 2 1 3 4 5 5 2 1 0 1 0 1 2 3 0 1 1 2 1 0 0 1 2 7 4 1 3 7 3 3 3 4 7 7 5 4 4 4 5 6 5 5
15 13 13 7 6 11 8 4 3 2 0 1 1 1 1 1 3 5 4 1 0 2 2 1 1 1 8 2 5 2 1 4 2 2 5 1 6 2 6 1 4 5 1 1 6 2 1 1 1 2 3 3 2 0 1 4 1 0 3 3 3 3 2 1 1 1 2 2 2 4 5 1 7 6 5 2 1 6 7 4 4 5 4 5 6 7 6 6
13 15 15 5 2 4 5 4 5 0 1 1 1 2 1 1 3 2 2 1 1 0 1 2 2 5 3 1 2 8 7 4 1 6 4 2 7 7 4 2 3 3 6 7 9 3 0 3 4 3 1 0 1 1 1 1 1 2 2 0 1 2 1 1 4 1 2 1 2 2 4 1 4 4 5 1 1 2 2 3 5 5 5 6 6 7 7 6
13 14 15 8 5 1 1 3 0 2 2 1 2 0 1 7 3 4 1 1 1 1 1 5 1 6 6 3 1 5 2 3 8 5 3 6 9 6 2 1 3 3 6 5 4 3 0 0 0 0 2 1 1 1 1 0 0 1 1 1 2 1 2 1 2 2 2 3 3 2 1 2 1 4 5 8 3 4 4 3 3 4 5 5 5 5 5 5
10 9 14 10 1 0 1 4 1 4 2 1 1 3 3 2 3 1 1 3 1 2 3 2 2 1 2 1 5 5 3 5 3 6 5 3 4 7 8 3 3 2 3 3 1 2 2 2 0 2 2 3 2 1 0 1 3 2 1 4 1 4 5 1 7 2 0 1 1 0 0 1 6 9 3 2 6 5 7 7 5 4 5 6 6 6 6 6
9 4 12 8 1 4 2 0 4 3 3 1 2 4 2 4 1 1 0 1 0 1 1 1 1 2 0 1 3 3 2 3 3 3 2 1 4 3 0 2 0 1 2 1 1 4 1 1 3 3 1 1 1 2 4 1 1 5 3 2 5 4 5 1 3 2 5 4 0 0 1 2 5 8 8 10 9 5 5 8 8 6 7 7 6 6 7 9
9 7 7 3 6 3 3 3 3 4 2 1 1 3 7 1 2 2 1 2 0 2 3 1 2 0 6 2 1 1 2 0 1 2 2 0 5 2 3 2 2 3 3 1 3 0 1 2 1 3 1 3 3 1 0 0 1 0 2 0 4 6 1 0 1 1 2 6 5 3 1 4 2 1 3 10 5 4 5 6 6 6 8 7 7 7 8 8
5 8 4 2 2 3 1 3 3 2 2 2 8 4 2 3 1 4 2 1 2 1 0 1 1 2 2 2 2 1 1 1 2 2 7 3 2 1 3 5 4 2 0 1 0 1 0 4 1 1 2 1 2 0 1 2 1 1 1 1 5 1 3 0 1 2 2 4 7 0 4 3 3 2 5 2 6 7 4 6 3 7 5 4 5 7 7 7
2 2 1 2 2 1 1 1 3 1 1 4 4 2 2 4 0 2 1 2 1 2 1 2 3 2 1 1 1 2 3 0 3 2 3 3 2 1 1 1 2 2 1 2 1 0 2 0 0 6 2 2 0 0 1 0 0 1 1 2 2 1 7 6 1 0 1 2 6 1 8 5 9 4 2 5 4 7 4 5 4 7 5 3 6 8 7 7
2 2 2 3 1 0 2 2 2 1 5 5 4 2 1 1 1 2 2 1 1 4 2 4 1 1 1 1 1 2 0 1 1 2 1 0 1 1 0 0 2 0 0 2 0 1 1 3 1 2 0 0 1 0 0 0 0 1 3 1 2 2 3 2 1 2 5 2 4 3 3 10 7 1 4 4 4 9 5 6 6 7 6 6 8 7 8 8
1 1 0 1 1 1 1 2 1 4 4 3 1 2 0 1 0 0 0 0 0 2 3 1 0 1 2 1 0 1 3 1 3 6 0 1 1 2 1 0 0 1 0 1 1 0 1 1 0 0 1 4 2 0 1 1 0 1 4 3 1 1 1 3 2 3 4 3 6 7 3 8 5 6 3 1 2 4 5 4 4 7 7 8 8 9 8 7
2 1 0 0 0 1 1 2 2 1 2 4 2 1 1 0 0 0 1 1 1 1 1 1 1 0 2 1 1 0 2 1 0 1 1 0 1 2 0 1 0 1 1 0 1 1 1 1 2 0 2 2 1 1 1 1 2 1 0 2 0 2 1 1 0 1 4 3 6 7 4 5 7 6 6 4 7 6 5 4 6 8 8 7 7 7 7 7
0 0 0 0 2 1 2 1 5 7 4 1 3 0 0 0 0 1 0 0 0 1 1 2 1 2 0 3 1 1 1 1 1 0 1 1 0 1 0 2 1 0 1 1 2 0 0 0 1 1 2 1 0 2 1 1 1 1 2 1 1 2 1 2 1 1 0 2 2 1 9 8 9 7 7 8 6 7 8 7 6 7 8 7 7 7 6 6
1 2 1 0 3 1 2 13 11 6 5 0 1 3 0 2 1 0 2 2 0 1 1 2 5 1 4 2 2 1 0 1 0 0 1 0 2 1 1 0 1 0 1 1 3 1 1 1 1 4 4 0 2 0 1 0 0 0 0 1 5 4 1 0 4 1 2 1 2 2 9 9 12 4 9 8 7 4 6 5 6 7 8 8 8 8 7 8
1 0 1 0 3 2 2 6 4 0 4 4 1 0 1 2 2 0 1 0 0 1 1 4 1 3 1 1 1 1 2 1 0 1 1 1 0 1 0 1 1 0 0 1 0 1 1 2 1 4 2 1 0 0 0 0 1 0 1 1 1 1 4 4 0 2 1 0 3 2 0 12 7 3 4 6 3 4 5 4 8 8 8 9 10 9 8 8
2 1 1 2 3 3 9 6 0 5 3 1 3 1 1 1 2 1 0 1 0 0 1 1 1 1 2 0 2 1 1 1 3 0 2 1 1 0 2 1 3 2 2 1 1 0 4 1 3 5 4 3 0 1 1 1 1 1 0 0 1 1 0 2 1 3 4 1 1 1 2 12 7 1 4 4 5 5 5 5 9 9 9 10 10 10 10 9
1 1 1 0 1 2 3 3 0 1 0 1 1 0 2 1 1 2 0 1 0 0 1 1 1 1 1 0 1 2 1 1 2 1 0 1 1 2 3 2 1 0 0 1 2 2 0 1 3 3 4 3 1 1 1 0 1 1 2 2 1 2 4 2 4 1 0 7 8 8 7 8 3 2 3 3 4 5 7 7 8 9 9 9 9 9 9 9
0 1 1 6 8 5 1 2 6 5 1 2 1 2 0 1 1 0 1 1 0 0 0 0 0 1 2 1 2 1 2 1 0 1 1 1 1 1 3 3 4 1 1 4 2 1 0 1 1 1 1 3 4 4 2 2 1 2 0 1 2 5 7 2 1 1 2 2 4 3 9 13 5 4 4 5 4 8 8 8 5 8 9 10 10 10 10 8
1 0 4 4 8 7 6 1 6 7 7 2 2 1 1 1 0 2 2 1 0 0 1 2 0 2 2 0 2 4 2 3 1 0 0 1 1 1 2 5 2 1 2 2 2 1 1 0 1 4 6 7 8 3 0 2 1 2 2 4 5 2 1 2 5 4 7 4 7 12 10 18 21 18 11 10 5 8 13 10 9 8 7 9 9 10 9 10
1 2 1 2 5 7 3 4 2 3 4 5 1 3 1 1 0 1 2 0 0 0 1 1 1 2 1 1 1 1 0 2 4 1 2 2 1 1 1 1 2 1 2 2 1 2 2 1 3 2 6 8 2 4 2 2 5 6 5 6 6 7 7 8 9 9 6 7 10 7 11 9 20 14 14 16 16 12 9 9 10 8 8 8 9 8 10 10
1 1 1 1 1 1 2 2 3 4 3 1 0 1 4 2 1 2 1 0 0 1 1 0 1 2 6 3 4 1 1 1 1 2 1 1 2 0 1 1 1 4 3 0 1 1 2 2 1 1 5 6 6 8 3 3 5 6 6 5 6 8 7 11 13 6 9 6 15 3 4 5 17 13 16 18 17 13 13 17 14 10 10 10 10 11 11 11
2 1 1 1 0 1 1 0 2 6 5 2 1 2 2 3 5 3 3 1 1 0 1 1 4 7 6 2 2 1 3 0 3 1 4 2 2 2 0 0 1 3 0 0 1 1 2 3 2 1 5 7 10 5 2 5 4 4 9 11 10 11 16 17 16 7 13 15 17 15 15 20 22 21 22 21 17 12 14 13 13 13 12 10 10 11 11 12
1 0 0 3 5 3 0 1 1 1 2 1 1 3 4 6 5 1 1 3 1 1 1 1 4 0 4 4 3 3 7 3 1 1 3 4 0 2 3 4 3 2 1 1 0 0 1 3 4 0 1 5 3 4 0 1 3 9 12 12 12 13 12 14 9 8 7 14 19 21 17 22 24 20 14 17 14 11 10 13 14 13 8 8 9 12 12 12
1 0 2 3 1 0 0 2 1 1 0 1 1 1 2 4 5 6 2 3 1 5 6 6 5 5 1 3 1 6 4 3 3 1 9 6 1 5 3 2 7 5 1 1 0 2 0 2 2 1 3 6 1 5 7 5 7 11 19 13 13 9 8 10 11 11 9 15 11 3 7 14 20 11 4 9 9 8 11 13 13 12 6 6 9 12 13 13
1 0 1 2 1 0 0 0 0 1 2 4 3 3 3 6 4 5 1 1 1 1 6 6 6 7 1 2 11 7 3 5 1 1 5 2 5 5 3 3 5 9 7 3 0 3 3 3 1 1 2 6 3 1 7 9 10 12 11 6 9 11 6 1 6 4 15 10 4 6 13 15 9 2 4 11 8 8 10 11 10 10 9 6 9 12 13 13
Wind_Direction
19 5 6 8 359 354 352 349 344 348 346 340 332 334 339 336 338 338 346 341 334 339 5 9 1 345 139 94 114 50 55 72 39 36 45 22 310 323 327 329 327 326 342 65 28 54 21 25 19 332 46 50 318 43 314 50 18 54 54 105 61 168 96 186 160 187 204 129 225 223 214 105 301 329 263 344 338 28 309 335 303 329 266 213 246 261 281 307
10 5 4 3 353 348 347 345 343 342 338 334 333 331 329 332 336 344 349 354 345 338 355 13 16 24 133 127 92 30 86 53 36 38 46 322 343 342 341 343 340 345 2 43 92 101 84 40 48 43 46 50 327 31 22 9 44 68 105 65 131 196 351 142 197 200 131 192 181 233 303 158 216 137 312 48 303 6 352 314 347 322 310 318 295 296 359 342
5 3 4 355 349 348 346 341 341 335 337 331 332 332 326 321 342 346 345 348 343 328 339 350 15 17 7 206 135 66 43 348 24 12 336 344 343 344 344 342 347 1 31 121 87 125 123 172 256 75 11 88 10 17 34 348 59 12 108 82 21 207 189 204 164 197 227 150 97 109 241 109 275 119 305 233 266 358 257 261 338 325 273 290 290 315 327 346
3 359 355 351 348 348 344 339 338 339 334 333 331 326 331 335 352 354 347 347 343 337 334 342 337 353 351 9 157 87 75 57 42 304 316 338 339 341 343 343 345 14 43 51 107 88 102 94 58 78 92 66 321 17 42 336 72 324 66 125 156 186 113 3 181 256 242 133 128 103 260 90 342 223 109 187 333 284 265 224 211 240 236 254 271 289 323 333
1 355 349 348 347 343 341 344 341 335 329 326 328 325 324 347 2 3 356 349 345 345 339 329 343 22 18 172 109 95 74 58 317 317 314 337 337 339 340 347 347 32 90 137 78 59 67 61 71 47 65 58 15 21 35 344 71 79 83 284 104 119 74 255 271 352 154 87 92 59 93 203 286 69 114 144 219 250 214 256 210 223 234 235 278 297 322 304
356 354 347 344 343 341 341 340 336 329 328 330 329 325 327 349 3 1 359 353 350 350 351 324 295 291 38 79 68 62 84 79 319 318 333 334 334 338 337 349 350 84 79 46 74 23 51 6 63 29 35 58 358 74 305 2 324 94 348 13 294 215 122 270 356 286 197 90 92 69 227 10 48 274 205 176 207 238 218 210 203 217 236 250 270 277 296 301
351 351 345 340 339 335 331 331 327 323 324 328 330 335 334 347 359 360 355 357 10 16 12 354 285 298 52 60 46 74 84 153 348 295 341 333 334 336 338 355 8 44 66 65 30 70 34 90 72 57 94 84 34 78 30 49 35 84 120 23 29 52 86 294 13 96 109 104 175 209 338 193 358 319 112 256 248 238 261 247 246 256 274 278 288 255 253 273
351 344 339 333 334 330 329 323 318 316 320 334 342 345 344 342 352 355 353 355 17 25 20 6 16 344 336 49 35 49 52 338 308 318 338 336 336 338 333 11 22 19 56 53 170 88 115 51 102 167 49 90 206 97 302 65 30 75 84 247 193 41 342 318 120 48 37 68 264 95 113 298 190 233 359 264 256 261 258 288 267 287 307 291 250 276 284 289
348 340 335 334 336 330 328 321 317 329 345 1 6 360 355 348 349 348 354 357 1 3 16 19 359 49 88 85 105 66 5 274 297 321 339 339 333 330 19 24 349 67 101 44 12 147 96 230 86 179 171 107 302 89 349 93 22 79 123 123 63 58 319 331 72 27 23 287 14 329 301 290 252 218 251 242 260 256 287 301 331 350 331 305 290 283 286 281
345 341 338 334 336 333 328 323 326 342 349 356 0 359 356 356 349 356 1 6 358 2 359 16 27 107 55 77 69 73 274 296 336 342 335 333 329 9 27 14 8 71 61 346 47 35 77 191 115 99 110 76 85 33 323 68 152 122 100 105 107 303 34 2 106 329 301 228 308 161 290 274 321 34 292 285 251 306 325 303 319 1 303 292 290 294 279 252
349 344 344 341 341 337 328 321 329 342 344 346 350 352 349 354 2 10 14 6 23 16 32 24 43 75 49 69 85 101 258 4 9 335 335 343 14 34 6 358 336 68 92 46 56 31 81 101 114 145 36 152 107 18 61 139 126 105 134 97 38 352 64 359 63 354 346 246 48 126 267 251 301 82 226 248 342 333 240 285 305 316 289 288 293 289 277 256
350 348 345 341 333 327 321 321 329 328 334 330 337 348 350 354 10 23 29 30 42 46 58 62 60 102 93 67 58 75 287 282 304 318 334 16 30 54 20 13 35 55 76 86 38 1 126 141 84 66 153 175 77 119 59 114 73 166 88 76 316 5 40 6 59 314 17 282 183 307 316 334 357 216 243 242 303 10 182 284 290 290 287 291 291 288 279 251
349 346 342 337 327 324 319 326 327 333 331 338 342 352 352 360 19 37 37 36 16 34 46 64 68 69 84 49 326 244 326 263 289 335 16 5 4 186 88 42 48 48 62 91 54 352 127 126 95 75 47 83 132 37 166 80 20 118 38 111 34 1 20 342 292 321 6 257 17 315 340 265 258 243 265 285 339 65 306 278 276 278 289 292 292 284 286 288
347 346 344 337 331 331 328 328 331 331 335 345 357 359 10 34 35 43 56 67 4 35 65 43 68 66 76 145 258 233 253 202 307 28 353 339 35 334 17 13 42 50 29 90 104 40 71 61 85 113 101 86 117 314 66 341 22 115 227 59 86 47 303 333 61 323 135 57 17 356 234 287 266 282 275 314 250 182 250 264 271 281 289 287 285 283 279 281
350 350 346 344 339 336 330 329 330 338 346 355 3 15 33 37 45 45 36 35 12 279 236 97 50 74 50 90 273 284 259 93 36 348 336 20 8 351 354 351 19 24 50 65 80 31 41 56 64 43 56 323 45 59 24 32 15 42 76 298 325 104 276 300 357 36 59 319 21 83 69 238 258 264 292 327 353 150 238 263 275 280 277 279 282 284 283 274
352 351 349 343 340 334 339 340 337 342 351 353 357 30 33 39 35 48 46 61 343 355 20 56 353 87 105 54 284 42 40 35 347 312 325 59 32 52 292 289 316 18 32 27 58 60 42 68 63 137 80 10 52 81 64 51 352 360 78 69 321 30 265 343 231 88 301 268 327 120 256 326 316 255 251 307 358 213 239 271 273 273 275 281 283 285 285 304
353 351 345 343 337 341 349 346 345 346 350 339 344 356 41 37 16 59 52 31 3 344 63 42 48 123 68 249 323 34 330 294 274 352 347 51 54 348 13 28 17 345 358 20 25 53 2 60 282 32 41 93 42 85 55 25 344 324 28 121 200 109 339 219 314 55 339 65 282 360 203 237 242 279 287 306 348 247 241 256 264 265 270 278 291 291 285 283
353 349 345 340 343 346 347 349 346 349 334 331 41 360 314 16 44 43 354 3 341 77 82 107 104 42 38 18 37 314 298 293 354 306 276 317 55 27 57 43 342 19 36 18 5 48 341 56 22 124 62 31 32 34 118 253 188 221 343 30 327 325 223 255 337 277 7 12 309 326 263 270 273 287 289 284 256 208 241 241 252 272 283 289 295 290 282 282
349 347 343 340 334 344 345 348 353 347 353 251 31 232 315 11 344 64 36 340 37 354 27 337 17 91 175 301 279 291 308 252 277 13 341 3 346 75 50 81 64 36 317 56 331 56 346 64 42 39 13 354 5 37 84 132 104 162 158 146 151 11 282 233 247 296 48 325 329 236 239 292 294 291 293 304 348 217 255 281 278 272 275 281 283 284 281 274
346 343 342 339 342 345 348 355 1 356 328 29 13 14 18 14 9 346 353 32 69 99 136 242 201 128 11 1 348 288 244 21 35 350 341 333 13 360 38 50 8 59 62 59 316 31 6 76 62 96 285 295 279 221 85 125 115 105 94 106 210 253 285 284 280 259 314 304 257 240 291 282 280 277 279 293 332 284 270 268 267 269 272 275 276 273 274 276
343 342 342 340 342 345 351 1 8 14 64 98 83 59 278 159 70 46 306 51 199 183 75 36 101 115 109 273 312 7 29 337 126 6 11 178 65 67 336 18 17 48 15 261 125 309 71 72 8 236 242 254 276 224 123 68 50 110 107 120 294 197 274 237 279 3 339 50 288 21 320 289 276 284 282 311 344 271 245 259 270 270 271 273 271 277 269 262
342 345 346 345 348 342 347 352 4 55 63 83 67 110 102 192 239 156 118 49 16 25 47 44 170 31 328 197 332 139 94 32 4 357 337 46 336 94 329 78 71 101 337 351 13 27 46 85 265 276 183 108 82 80 103 121 116 39 246 195 77 277 253 293 285 356 325 65 268 3 339 289 286 288 301 288 253 256 236 214 245 268 288 280 273 265 276 303
350 347 347 345 345 343 336 337 2 45 39 37 74 80 110 337 337 260 100 125 80 323 46 18 23 11 356 320 344 98 58 46 299 344 344 15 9 61 49 58 57 59 24 16 124 105 54 339 292 141 145 106 36 41 77 73 67 74 29 45 316 280 23 331 310 353 340 64 277 342 318 288 297 289 272 265 223 274 280 259 262 238 256 264 265 267 286 290
347 348 345 349 344 339 348 334 21 42 34 108 85 99 160 31 327 271 70 88 128 339 27 271 111 129 19 20 320 51 72 342 70 331 353 53 70 244 70 91 70 48 34 33 90 94 127 279 155 101 90 151 100 33 68 117 356 351 85 112 347 336 310 198 283 325 298 12 35 308 295 312 335 342 325 314 327 324 311 339 306 268 235 266 290 287 239 256
345 343 346 337 347 338 327 38 37 58 178 46 51 246 288 325 194 332 93 14 20 17 121 36 95 35 283 303 7 104 322 90 98 246 294 40 359 33 97 158 91 26 187 279 92 80 55 214 178 48 39 56 93 35 59 109 36 332 230 140 184 209 283 308 323 356 15 318 26 15 21 302 292 278 251 287 346 332 316 355 301 297 304 320 304 283 296 260
345 342 342 340 340 334 285 47 356 171 75 62 214 236 342 313 13 341 91 70 59 282 6 4 189 26 179 337 9 69 49 45 256 278 353 63 179 134 127 29 51 154 221 97 93 115 114 357 98 138 104 66 70 100 232 93 133 73 314 159 133 155 163 340 342 16 20 83 344 31 70 278 329 296 268 338 331 302 315 317 282 296 296 310 276 281 285 289
344 340 345 345 346 331 46 211 191 151 31 271 28 336 326 344 312 353 55 353 45 270 52 238 82 282 112 298 357 90 68 270 332 7 31 346 44 344 91 326 35 37 95 167 36 11 51 359 33 38 58 56 43 35 321 112 90 357 109 128 94 95 58 342 77 63 226 302 266 42 78 230 318 295 293 298 319 300 310 299 293 285 288 285 287 283 280 279
348 343 347 358 9 39 154 118 98 58 173 295 357 33 12 359 359 27 77 61 284 354 6 320 327 349 71 331 47 98 155 295 48 286 73 302 136 7 83 182 118 162 204 83 114 249 80 328 27 27 66 56 57 236 189 134 143 235 182 162 220 200 188 122 90 82 214 336 301 343 344 86 265 265 318 3 343 323 293 275 278 285 284 279 287 287 288 271
344 344 349 1 65 65 64 104 108 123 260 18 58 71 57 77 84 106 115 119 245 76 192 77 309 35 338 329 30 15 335 12 105 312 325 303 35 167 67 57 126 131 111 153 153 200 334 130 209 114 90 30 253 335 189 156 27 291 131 96 80 80 84 138 126 79 339 56 296 328 347 33 286 277 342 331 281 279 261 264 266 251 262 286 294 296 289 288
345 349 354 350 107 14 8 41 44 210 123 51 73 131 52 60 34 35 16 267 36 295 40 272 47 289 17 49 338 5 38 341 86 306 25 81 324 30 62 128 116 60 48 25 68 159 198 309 177 82 103 195 164 310 150 233 200 129 93 82 17 51 35 18 61 93 59 35 254 247 311 99 302 271 222 145 214 207 270 304 275 280 286 271 256 257 274 290
353 0 2 30 79 189 62 38 279 147 134 128 171 48 68 38 110 106 164 227 46 267 359 33 319 16 31 52 345 346 56 342 347 19 346 8 1 37 33 111 33 62 51 17 56 328 57 13 42 323 47 68 117 112 15 118 10 118 145 157 105 301 5 27 338 36 75 288 253 241 270 315 194 291 290 234 263 215 187 217 254 273 268 266 282 282 280 290
351 16 29 49 120 89 79 164 161 124 116 170 69 60 70 261 6 129 226 337 157 287 89 301 41 79 26 336 76 339 357 338 9 33 48 31 41 35 354 111 338 75 354 1 339 342 39 39 263 334 247 81 40 87 325 356 12 84 77 31 86 296 33 333 14 7 33 200 173 184 205 44 232 226 225 279 243 245 214 210 207 226 260 269 273 279 291 289
347 13 50 40 48 46 41 82 85 119 122 72 68 54 60 89 219 270 321 325 253 27 270 132 279 26 239 51 1 337 262 54 331 68 134 351 103 31 286 69 238 219 111 282 339 30 265 279 24 296 90 353 107 74 321 29 299 29 57 33 62 33 35 347 276 223 299 302 253 151 284 256 251 278 228 231 244 213 223 225 227 229 239 258 268 293 298 296
21 36 61 1 61 69 126 107 100 127 83 52 75 36 50 76 248 155 181 235 312 348 42 41 356 66 41 98 304 349 53 241 40 329 43 29 51 38 326 332 69 11 81 95 82 230 53 354 324 18 19 9 49 90 164 209 355 314 190 114 146 133 146 309 243 301 245 253 276 289 27 236 47 233 193 212 229 260 253 250 242 238 242 247 270 275 274 277
50 57 93 7 43 27 90 118 99 126 78 59 53 83 132 242 215 182 235 265 268 321 186 306 55 61 360 25 319 306 176 314 62 34 18 63 1 109 360 322 335 107 183 85 271 69 186 212 278 333 258 17 23 271 114 93 58 260 174 126 55 43 155 70 212 166 282 334 332 286 209 190 197 247 291 283 305 291 267 269 261 262 236 240 279 269 267 269
23 332 58 15 33 300 112 101 110 115 90 55 73 53 202 186 302 157 117 154 93 134 181 44 82 66 302 317 330 69 278 109 334 79 1 57 193 84 263 215 342 14 59 103 198 86 11 58 294 315 28 78 270 172 358 198 48 286 60 58 146 132 96 97 76 97 105 56 256 212 313 293 290 320 324 342 330 291 326 296 297 276 280 315 273 268 266 262
29 326 46 345 5 236 189 140 128 85 63 92 94 236 208 275 215 174 310 148 168 138 69 124 302 109 206 234 270 337 293 34 290 74 319 159 25 192 354 305 166 23 137 135 23 202 160 251 311 77 278 10 309 138 18 354 271 43 48 192 111 125 121 123 264 337 59 106 264 37 276 306 24 296 328 349 338 291 294 279 279 290 289 288 266 263 260 259
47 50 98 17 282 344 159 181 100 44 79 81 99 224 309 83 271 173 214 18 118 43 97 96 248 60 253 130 327 332 308 71 318 44 182 314 115 149 111 166 33 140 351 309 121 296 86 2 330 161 217 259 20 36 343 329 248 134 134 167 67 286 12 333 92 5 349 344 295 313 275 252 182 255 342 294 238 278 277 280 314 279 271 252 261 268 273 276
57 76 302 270 307 246 215 117 70 74 60 61 214 102 251 258 288 189 220 201 270 150 90 223 136 331 133 136 237 284 316 90 6 72 74 271 83 182 119 159 342 158 332 250 67 212 27 136 294 227 142 330 4 79 284 298 354 47 16 22 323 99 129 39 122 183 121 271 24 295 24 276 203 219 194 230 226 229 258 291 251 246 249 252 244 253 266 281
48 13 314 246 306 90 160 74 61 41 68 146 199 205 234 216 241 284 337 144 354 100 212 137 219 115 270 211 144 139 328 94 130 248 96 303 98 344 321 349 158 281 15 346 130 321 77 104 265 284 291 325 184 359 182 152 162 338 38 339 15 48 238 114 25 93 222 179 167 270 327 280 260 212 182 217 208 217 205 228 248 256 262 255 252 253 265 265
53 97 267 325 335 211 37 48 45 42 102 254 78 157 36 202 203 312 331 336 86 303 185 167 160 149 190 118 268 234 81 68 55 113 176 295 158 298 36 113 296 345 330 17 55 359 68 11 230 301 4 271 224 220 214 138 305 189 157 206 173 115 94 75 281 22 66 73 227 106 270 276 278 171 204 212 227 217 236 220 255 268 265 266 269 265 248 265
101 13 283 351 335 119 88 52 25 236 97 111 121 152 114 73 58 321 353 327 65 136 13 111 49 119 136 81 143 160 123 78 279 84 264 143 40 98 335 24 188 220 122 176 156 241 127 152 84 289 206 235 270 28 357 89 107 167 155 279 132 70 105 94 13 274 47 272 101 149 351 272 244 209 219 243 266 247 246 206 255 269 275 276 273 270 274 251
56 202 253 358 338 94 66 77 204 51 55 240 306 334 348 24 134 270 89 342 19 77 30 57 188 65 293 157 212 99 191 187 159 58 174 208 247 214 282 322 269 6 88 329 358 281 99 62 15 283 311 309 335 353 65 65 132 18 88 65 99 182 192 180 167 172 135 132 109 13 233 254 282 257 238 249 259 270 259 228 243 267 273 273 272 281 282 285
182 240 331 239 57 111 83 246 33 356 323 305 79 172 288 188 136 36 33 317 125 327 136 170 359 22 139 59 100 139 228 123 241 118 320 181 78 152 359 348 227 279 109 208 134 222 55 304 112 324 357 337 340 350 358 331 80 185 216 202 168 90 78 151 104 12 312 216 170 131 242 273 270 324 291 267 286 286 272 253 208 245 262 264 271 272 270 272
142 282 247 305 2 49 181 172 137 145 215 156 129 83 354 24 44 167 168 172 41 151 113 357 254 146 58 99 88 93 357 90 239 358 100 158 148 348 320 28 305 136 270 281 287 320 81 215 104 75 50 340 310 316 279 308 250 236 156 114 231 143 139 132 211 35 202 278 133 180 255 253 263 299 307 289 306 292 270 262 249 217 251 270 275 272 273 275
50 157 304 343 13 43 67 42 104 132 133 172 95 223 115 78 13 333 130 43 205 89 51 134 33 92 105 90 52 29 45 327 84 255 89 226 253 340 260 332 59 181 239 223 42 71 139 357 177 156 157 197 212 206 245 93 49 230 225 174 198 199 163 97 95 114 209 197 190 235 221 288 294 288 291 283 256 262 287 293 278 273 257 249 254 265 270 272
200 70 2 322 346 54 76 28 51 73 168 186 120 173 165 157 227 359 183 40 327 139 43 39 185 130 233 93 181 87 245 315 360 107 226 162 216 242 297 111 328 285 331 191 28 87 67 311 255 188 241 243 251 262 206 173 251 255 239 241 198 176 182 158 169 218 164 88 284 230 229 235 267 290 296 298 302 297 284 278 283 282 279 276 276 279 279 279
44 263 95 197 143 311 29 358 74 85 39 74 104 47 154 129 161 149 349 28 144 296 111 313 85 252 174 173 148 138 47 296 47 209 62 277 102 313 79 334 115 300 329 354 322 142 143 189 270 126 268 262 260 257 253 264 229 254 235 227 195 199 177 196 228 194 147 187 240 245 132 232 270 275 278 284 282 285 293 292 294 290 288 290 292 289 287 283
105 171 142 298 214 255 124 245 85 113 74 90 117 92 169 171 197 212 160 124 15 303 182 237 254 220 202 215 144 156 162 167 288 251 178 160 185 131 157 342 244 352 59 18 14 182 107 249 201 155 267 289 285 298 303 228 275 261 246 236 224 187 208 212 232 198 196 235 249 274 284 277 275 277 276 275 283 289 289 293 294 292 283 286 287 282 277 277
288 89 295 6 86 120 271 59 93 55 70 353 107 246 161 184 189 212 317 139 132 270 79 199 244 271 180 165 150 149 213 179 175 232 207 119 80 199 221 192 152 357 27 157 77 307 122 278 129 122 335 284 294 337 8 220 207 268 251 234 224 214 222 223 238 243 227 268 266 264 277 279 274 263 268 278 281 288 295 282 278 279 284 280 279 278 277 275
191 131 148 111 65 339 49 15 71 93 82 317 117 229 121 202 219 182 189 179 154 175 183 209 174 103 65 155 207 243 226 176 123 21 185 155 223 212 147 264 133 144 130 127 170 317 43 251 51 77 348 300 327 13 303 277 246 245 278 258 212 192 213 219 204 216 178 225 246 290 275 260 263 283 251 254 269 278 269 277 286 291 287 271 272 277 279 278
77 198 87 104 86 307 88 41 356 82 275 232 162 200 184 233 201 165 171 160 101 149 189 162 175 108 65 141 232 223 215 183 211 314 142 81 98 85 55 113 124 153 170 153 221 144 171 131 149 62 336 260 262 5 317 325 333 307 273 262 188 194 203 318 255 223 212 198 203 224 237 237 264 336 324 293 275 270 267 265 278 288 283 258 262 272 276 276